User: anonymous   Login
Location: Caltech
(34.1382°N, 118.1253°W)
Time: 06:52:28
(UTC-07:00)
Language:

Cosmos 1484 Rocket - Orbit

View from above orbital plane
View from above orbital plane
View from above satellite
View from above satellite

Ground track
Ground track

The orbit data is extracted from the following two-line orbital elements,

1 14208U 83075B   15213.05674805  .00000702  00000-0  47453-4 0  9991
2 14208 097.3821 239.9094 0039992 338.1669 021.7854 15.09107528743976
Epoch (UTC): 01 August 2015 01:21:43
Eccentricity: 0.0039992
inclination: 97.3821°
perigee height: 511 km
apogee height: 566 km
right ascension of ascending node: 239.9094°
argument of perigee: 338.1669°
revolutions per day: 15.09107528
mean anomaly at epoch: 21.7854°
orbit number at epoch: 74397

The dashed part of the orbit path shows where the satellite is in the earth's shadow,  

DLR